Weather History for Bigfork, MN

Change the Weather History Date:

Sunday, January 20, 2013

  Actual Average (KGPZ) Record (KGPZ)
Temperature  
Mean Temperature -10 °F -  
Max Temperature 0 °F 19 °F 45 °F (1944)
Min Temperature -20 °F -3 °F -32 °F (1962)
Degree Days  
Heating Degree Days 75    
Moisture  
Dew Point -17 °F    
Average Humidity 71    
Maximum Humidity 84    
Minimum Humidity 60    
Precipitation  
Precipitation 0.00 in - - ()
Sea Level Pressure  
Sea Level Pressure 30.19 in    
Wind  
Wind Speed 3 mph (West)    
Max Wind Speed 10 mph    
Max Gust Speed 18 mph    
Visibility 9 miles    
Events Snow    
Averages and records for this station are not official NWS values.
T = Trace of Precipitation, MM = Missing Value Source: NWS Daily Summary

Daily Weather History Graph

Daily Weather History Graph

Search for Another Location

Airport:

Trip Planner

Search our weather history database for the weather conditions in past years. The results will help you decide how hot, cold, wet, or windy it might be!

Date:

Astronomy

Jan. 20, 2013 Rise Set
Actual Time 7:54 AM CST 4:57 PM CST
Civil Twilight 7:20 AM CST 5:31 PM CST
Nautical Twilight 6:42 AM CST 6:09 PM CST
Astronomical Twilight 6:05 AM CST 6:46 PM CST
Moon 12:00 PM CST (1/20) 2:25 AM CST (1/20)
Length of Visible Light 10h 11m
Length of Day
9h 02m
Waxing Gibbous, 66% of the Moon is Illuminated
Jan 20
Waxing Gibbous
Jan 26
Full
Feb 3
Last Quarter
Feb 10
New
Feb 17
First Quarter

Hourly Weather History & Observations

Time (CST) Temp. Windchill Dew Point Humidity Pressure Visibility Wind Dir Wind Speed Gust Speed Precip Events Conditions
12:13 AM -7.6 °F -20.6 °F -11.2 °F 84% 30.15 in 10.0 mi NW 5.8 mph - N/A   Clear
12:33 AM -7.6 °F - -11.2 °F 84% 30.15 in 10.0 mi Calm Calm - N/A   Clear
12:53 AM -7.6 °F -16.5 °F -13.0 °F 77% 30.16 in 10.0 mi NW 3.5 mph - N/A   Clear
1:13 AM -9.4 °F -18.6 °F -14.8 °F 77% 30.16 in 10.0 mi WNW 3.5 mph - N/A   Clear
1:33 AM -9.4 °F - -14.8 °F 77% 30.17 in 10.0 mi Calm Calm - N/A   Clear
1:53 AM -9.4 °F -20.9 °F -14.8 °F 77% 30.18 in 10.0 mi WNW 4.6 mph - N/A   Clear
2:13 AM -9.4 °F -18.6 °F -14.8 °F 77% 30.18 in 10.0 mi WNW 3.5 mph - N/A   Clear
2:33 AM -11.2 °F - -16.6 °F 77% 30.19 in 10.0 mi Calm Calm - N/A   Clear
2:53 AM -11.2 °F -20.6 °F -16.6 °F 77% 30.20 in 10.0 mi West 3.5 mph - N/A   Clear
3:13 AM -11.2 °F - -16.6 °F 77% 30.20 in 10.0 mi Calm Calm - N/A   Clear
3:33 AM -11.2 °F -20.6 °F -18.4 °F 70% 30.20 in 10.0 mi WNW 3.5 mph - N/A   Clear
3:53 AM -11.2 °F - -18.4 °F 70% 30.20 in 10.0 mi Calm Calm - N/A   Clear
4:13 AM -11.2 °F -20.6 °F -18.4 °F 70% 30.21 in 10.0 mi West 3.5 mph - N/A   Clear
4:33 AM -13.0 °F -22.7 °F -18.4 °F 77% 30.22 in 10.0 mi West 3.5 mph - N/A   Clear
4:53 AM -13.0 °F -22.7 °F -18.4 °F 77% 30.22 in 10.0 mi WNW 3.5 mph - N/A   Clear
5:13 AM -13.0 °F - -18.4 °F 77% 30.21 in 10.0 mi Calm Calm - N/A   Clear
5:33 AM -13.0 °F - -18.4 °F 77% 30.22 in 10.0 mi Calm Calm - N/A   Clear
5:53 AM -13.0 °F - -18.4 °F 77% 30.22 in 10.0 mi Calm Calm - N/A   Clear
6:13 AM -14.8 °F - -20.2 °F 77% 30.22 in 10.0 mi Calm Calm - N/A   Clear
6:33 AM -16.6 °F - -23.8 °F 70% 30.22 in 10.0 mi Calm Calm - N/A   Clear
6:53 AM -18.4 °F - -23.8 °F 76% 30.22 in 10.0 mi Calm Calm - N/A   Clear
7:13 AM -18.4 °F - -25.6 °F 70% 30.22 in 10.0 mi Calm Calm - N/A   Clear
7:33 AM -20.2 °F - -25.6 °F 76% 30.22 in 10.0 mi Calm Calm - N/A   Clear
7:53 AM -20.2 °F - -27.4 °F 69% 30.23 in 10.0 mi Calm Calm - N/A   Clear
8:13 AM -20.2 °F - -27.4 °F 69% 30.22 in 5.0 mi Calm Calm - N/A   Haze
8:33 AM -18.4 °F - -23.8 °F 76% 30.23 in 10.0 mi Calm Calm - N/A   Clear
8:53 AM -14.8 °F -24.8 °F -20.2 °F 77% 30.24 in 10.0 mi West 3.5 mph - N/A   Clear
9:13 AM -13.0 °F - -18.4 °F 77% 30.24 in 7.0 mi Calm Calm - N/A   Clear
9:33 AM -13.0 °F -22.7 °F -18.4 °F 77% 30.24 in 7.0 mi WSW 3.5 mph - N/A Snow Light Snow
9:53 AM -11.2 °F -23.0 °F -18.4 °F 70% 30.24 in 3.0 mi WSW 4.6 mph - N/A   Overcast
10:13 AM -11.2 °F -23.0 °F -16.6 °F 77% 30.25 in 2.5 mi WSW 4.6 mph - N/A Snow Light Snow
10:33 AM -9.4 °F -22.7 °F -16.6 °F 71% 30.25 in 4.0 mi WSW 5.8 mph - N/A Snow Light Snow
10:53 AM -9.4 °F -18.6 °F -14.8 °F 77% 30.25 in 10.0 mi WSW 3.5 mph - N/A   Scattered Clouds
11:13 AM -7.6 °F -20.6 °F -14.8 °F 71% 30.25 in 5.0 mi WSW 5.8 mph - N/A   Haze
11:33 AM -5.8 °F -18.4 °F -14.8 °F 65% 30.24 in 7.0 mi West 5.8 mph - N/A   Overcast
11:53 AM -5.8 °F -16.7 °F -13.0 °F 71% 30.23 in 7.0 mi WSW 4.6 mph - N/A Snow Light Snow
12:13 PM -4.0 °F -14.6 °F -11.2 °F 71% 30.22 in 7.0 mi West 4.6 mph - N/A Snow Light Snow
12:33 PM -2.2 °F -14.2 °F -11.2 °F 66% 30.22 in 10.0 mi WNW 5.8 mph - N/A   Clear
12:53 PM -2.2 °F -12.5 °F -11.2 °F 66% 30.21 in 7.0 mi West 4.6 mph - N/A   Scattered Clouds
1:13 PM -0.4 °F -12.0 °F -11.2 °F 60% 30.20 in 7.0 mi West 5.8 mph - N/A   Scattered Clouds
1:33 PM -0.4 °F -12.0 °F -11.2 °F 60% 30.20 in 5.0 mi West 5.8 mph - N/A   Haze
1:53 PM -2.2 °F -12.5 °F -11.2 °F 66% 30.20 in 4.0 mi West 4.6 mph - N/A   Haze
2:13 PM -2.2 °F -18.9 °F -11.2 °F 66% 30.20 in 2.5 mi WSW 10.4 mph - N/A   Haze
2:33 PM -2.2 °F -16.8 °F -11.2 °F 66% 30.18 in 5.0 mi WSW 8.1 mph - N/A   Haze
2:53 PM -0.4 °F -12.0 °F -11.2 °F 60% 30.19 in 5.0 mi West 5.8 mph - N/A   Haze
3:13 PM -0.4 °F -12.0 °F -11.2 °F 60% 30.18 in 7.0 mi WNW 5.8 mph - N/A   Overcast
3:33 PM -2.2 °F -14.2 °F -11.2 °F 66% 30.18 in 10.0 mi West 5.8 mph - N/A   Mostly Cloudy
3:53 PM -2.2 °F -14.2 °F -13.0 °F 60% 30.18 in 10.0 mi West 5.8 mph - N/A   Scattered Clouds
4:13 PM -2.2 °F -14.2 °F -11.2 °F 66% 30.18 in 10.0 mi West 5.8 mph - N/A   Scattered Clouds
4:33 PM -4.0 °F -17.8 °F -13.0 °F 65% 30.17 in 10.0 mi West 6.9 mph - N/A   Scattered Clouds
4:53 PM -5.8 °F -18.4 °F -13.0 °F 71% 30.17 in 10.0 mi West 5.8 mph - N/A   Clear
5:13 PM -5.8 °F -14.5 °F -14.8 °F 65% 30.17 in 10.0 mi West 3.5 mph - N/A   Clear
5:33 PM -5.8 °F -18.4 °F -14.8 °F 65% 30.16 in 10.0 mi West 5.8 mph - N/A   Clear
5:53 PM -7.6 °F -22.1 °F -14.8 °F 71% 30.16 in 10.0 mi WSW 6.9 mph - N/A   Clear
5:59 PM -7.6 °F -18.8 °F -14.8 °F 71% 30.16 in 10.0 mi West 4.6 mph - N/A   Clear
6:33 PM -7.6 °F -18.8 °F -14.8 °F 71% 30.16 in 10.0 mi West 4.6 mph - N/A   Clear
6:53 PM -7.6 °F -20.6 °F -14.8 °F 71% 30.15 in 10.0 mi West 5.8 mph - N/A   Clear
7:13 PM -7.6 °F - -14.8 °F 71% 30.15 in 10.0 mi Calm Calm - N/A   Clear
7:33 PM -9.4 °F -20.9 °F -14.8 °F 77% 30.15 in 10.0 mi West 4.6 mph - N/A   Clear
7:53 PM -9.4 °F -24.3 °F -14.8 °F 77% 30.15 in 10.0 mi West 6.9 mph - N/A   Clear
8:13 PM -9.4 °F -18.6 °F -16.6 °F 71% 30.15 in 10.0 mi WNW 3.5 mph - N/A   Mostly Cloudy
8:33 PM -9.4 °F -24.3 °F -16.6 °F 71% 30.15 in 10.0 mi West 6.9 mph 16.1 mph N/A   Scattered Clouds
8:53 PM -9.4 °F -27.9 °F -18.4 °F 65% 30.15 in 10.0 mi West 10.4 mph 16.1 mph N/A   Clear
9:13 PM -11.2 °F -24.8 °F -18.4 °F 70% 30.16 in 5.0 mi West 5.8 mph 18.4 mph N/A   Haze
9:33 PM -11.2 °F -20.6 °F -18.4 °F 70% 30.16 in 10.0 mi WNW 3.5 mph - N/A   Scattered Clouds
9:53 PM -11.2 °F -23.0 °F -20.2 °F 64% 30.16 in 10.0 mi WNW 4.6 mph - N/A   Clear
10:13 PM -11.2 °F -23.0 °F -20.2 °F 64% 30.16 in 10.0 mi NW 4.6 mph - N/A   Scattered Clouds
10:33 PM -13.0 °F -27.0 °F -20.2 °F 70% 30.16 in 10.0 mi WNW 5.8 mph - N/A   Clear
10:53 PM -13.0 °F -27.0 °F -20.2 °F 70% 30.16 in 5.0 mi WNW 5.8 mph - N/A Snow Light Snow
11:13 PM -14.8 °F -34.6 °F -20.2 °F 77% 30.16 in 4.0 mi WNW 10.4 mph - N/A Snow Light Snow
11:33 PM -14.8 °F -27.2 °F -22.0 °F 70% 30.17 in 7.0 mi NW 4.6 mph - N/A   Scattered Clouds
11:53 PM -14.8 °F -24.8 °F -22.0 °F 70% 30.16 in 10.0 mi WNW 3.5 mph - N/A   Scattered Clouds